• In Uzbekistan
  • List of Countries
  • For 7 days
  • Water Temperature
  • Satellite Maps
  • Weather Map
  • Weather Widgets
  • user-avatar
    Login

    Hourly Weather Rheinstetten

    Today, 24 September, Sunday

    Time Temperature Precipitation Wind Pressure Humidity
    00:00 +13°C° 0 mm 1 mps 755 mmHg 87%
    01:00 +13°C° 0 mm 1 mps 755 mmHg 88%
    02:00 +12°C° 0 mm 0 mps 755 mmHg 89%
    03:00 +11°C° 0 mm 0 mps 755 mmHg 90%
    04:00 +11°C° 0 mm 0 mps 755 mmHg 90%
    05:00 +11°C° 0 mm 0 mps 755 mmHg 91%
    06:00 +11°C° 0 mm 0 mps 756 mmHg 91%
    07:00 +11°C° 0 mm 0 mps 756 mmHg 91%
    08:00 +13°C° 0 mm 0 mps 756 mmHg 83%
    09:00 +16°C° 0 mm 1 mps 756 mmHg 75%
    10:00 +19°C° 0 mm 1 mps 756 mmHg 68%
    11:00 +20°C° 0 mm 1 mps 756 mmHg 64%
    12:00 +21°C° 0 mm 1 mps 756 mmHg 60%
    13:00 +22°C° 0 mm 1 mps 755 mmHg 57%
    14:00 +22°C° 0.1 mm 1 mps 755 mmHg 57%
    15:00 +22°C° 0.1 mm 1 mps 755 mmHg 57%
    16:00 +22°C° 0.1 mm 1 mps 755 mmHg 58%
    17:00 +20°C° 0.1 mm 1 mps 755 mmHg 65%
    18:00 +18°C° 0.1 mm 1 mps 755 mmHg 72%
    19:00 +16°C° 0.1 mm 1 mps 755 mmHg 79%
    20:00 +15°C° 0 mm 1 mps 755 mmHg 81%
    21:00 +14°C° 0 mm 1 mps 755 mmHg 83%
    22:00 +13°C° 0 mm 0 mps 755 mmHg 86%
    23:00 +13°C° 0 mm 1 mps 755 mmHg 87%

    Tomorrow, 25 September, Monday

    Time Temperature Precipitation Wind Pressure Humidity
    00:00 +13°C° 0 mm 1 mps 755 mmHg 88%
    01:00 +13°C° 0 mm 1 mps 755 mmHg 89%
    02:00 +12°C° 0 mm 1 mps 755 mmHg 90%
    03:00 +12°C° 0 mm 1 mps 755 mmHg 90%
    04:00 +12°C° 0 mm 1 mps 754 mmHg 91%
    05:00 +12°C° 0 mm 1 mps 754 mmHg 91%
    06:00 +12°C° 0 mm 1 mps 754 mmHg 91%
    07:00 +12°C° 0 mm 1 mps 754 mmHg 90%
    08:00 +14°C° 0 mm 1 mps 754 mmHg 83%
    09:00 +16°C° 0 mm 1 mps 754 mmHg 75%
    10:00 +19°C° 0 mm 1 mps 754 mmHg 67%
    11:00 +20°C° 0 mm 1 mps 754 mmHg 63%
    12:00 +21°C° 0 mm 1 mps 753 mmHg 58%
    13:00 +22°C° 0 mm 1 mps 753 mmHg 54%
    14:00 +22°C° 0 mm 1 mps 753 mmHg 54%
    15:00 +22°C° 0 mm 1 mps 753 mmHg 54%
    16:00 +22°C° 0 mm 1 mps 752 mmHg 54%
    17:00 +20°C° 0 mm 1 mps 753 mmHg 61%
    18:00 +17°C° 0 mm 0 mps 753 mmHg 67%
    19:00 +15°C° 0 mm 0 mps 753 mmHg 74%
    20:00 +15°C° 0 mm 1 mps 753 mmHg 76%
    21:00 +15°C° 0 mm 1 mps 754 mmHg 79%
    22:00 +15°C° 0 mm 1 mps 754 mmHg 81%
    23:00 +14°C° 0 mm 1 mps 754 mmHg 84%

    Day after tomorrow, 26 September, Tuesday

    Time Temperature Precipitation Wind Pressure Humidity
    00:00 +14°C° 0 mm 1 mps 754 mmHg 86%
    01:00 +13°C° 0 mm 1 mps 754 mmHg 88%
    02:00 +13°C° 0.1 mm 1 mps 754 mmHg 89%
    03:00 +13°C° 0.1 mm 1 mps 754 mmHg 90%
    04:00 +13°C° 0.1 mm 1 mps 754 mmHg 91%
    05:00 +13°C° 0.4 mm 1 mps 754 mmHg 90%
    06:00 +13°C° 0.4 mm 1 mps 754 mmHg 90%
    07:00 +14°C° 0.4 mm 1 mps 754 mmHg 90%
    08:00 +14°C° 0.4 mm 1 mps 754 mmHg 88%
    09:00 +15°C° 0.4 mm 1 mps 754 mmHg 87%
    10:00 +16°C° 0.4 mm 1 mps 755 mmHg 85%
    11:00 +18°C° 0.1 mm 1 mps 755 mmHg 80%
    12:00 +19°C° 0.1 mm 1 mps 755 mmHg 75%
    13:00 +20°C° 0.1 mm 1 mps 755 mmHg 70%
    14:00 +21°C° 0.1 mm 1 mps 755 mmHg 69%
    15:00 +21°C° 0.1 mm 1 mps 755 mmHg 68%
    16:00 +21°C° 0.1 mm 1 mps 755 mmHg 67%
    17:00 +20°C° 0 mm 1 mps 755 mmHg 73%
    18:00 +18°C° 0 mm 1 mps 755 mmHg 79%
    19:00 +16°C° 0 mm 1 mps 756 mmHg 86%
    20:00 +14°C° 0 mm 0 mps 756 mmHg 87%
    21:00 +14°C° 0 mm 0 mps 756 mmHg 89%
    22:00 +13°C° 0 mm 0 mps 756 mmHg 90%
    23:00 +13°C° 0 mm 0 mps 756 mmHg 91%

    27 September, Wednesday

    Time Temperature Precipitation Wind Pressure Humidity
    00:00 +13°C° 0 mm 0 mps 757 mmHg 91%
    01:00 +12°C° 0 mm 0 mps 757 mmHg 92%
    02:00 +12°C° 0 mm 0 mps 757 mmHg 92%
    03:00 +12°C° 0 mm 0 mps 757 mmHg 92%
    04:00 +12°C° 0 mm 0 mps 757 mmHg 93%
    05:00 +12°C° 0 mm 0 mps 757 mmHg 93%
    06:00 +12°C° 0 mm 0 mps 757 mmHg 93%
    07:00 +12°C° 0 mm 0 mps 757 mmHg 93%
    08:00 +14°C° 0 mm 0 mps 757 mmHg 86%
    09:00 +18°C° 0 mm 1 mps 758 mmHg 79%
    10:00 +20°C° 0 mm 1 mps 758 mmHg 72%
    11:00 +21°C° 0 mm 1 mps 758 mmHg 67%
    12:00 +23°C° 0 mm 1 mps 757 mmHg 62%
    13:00 +24°C° 0 mm 1 mps 757 mmHg 57%
    14:00 +24°C° 0 mm 1 mps 757 mmHg 57%
    15:00 +24°C° 0 mm 1 mps 757 mmHg 57%
    16:00 +24°C° 0 mm 1 mps 757 mmHg 57%
    17:00 +22°C° 0 mm 1 mps 757 mmHg 64%
    18:00 +20°C° 0 mm 1 mps 757 mmHg 71%
    19:00 +18°C° 0 mm 1 mps 757 mmHg 77%
    20:00 +18°C° 0 mm 1 mps 758 mmHg 80%
    21:00 +16°C° 0 mm 1 mps 758 mmHg 82%
    22:00 +16°C° 0 mm 1 mps 758 mmHg 84%
    23:00 +15°C° 0 mm 1 mps 758 mmHg 86%

    28 September, Thursday

    Time Temperature Precipitation Wind Pressure Humidity
    00:00 +15°C° 0 mm 1 mps 758 mmHg 87%
    01:00 +15°C° 0 mm 1 mps 758 mmHg 88%
    02:00 +14°C° 0 mm 1 mps 758 mmHg 89%
    03:00 +14°C° 0 mm 1 mps 758 mmHg 89%
    04:00 +14°C° 0 mm 1 mps 758 mmHg 90%
    05:00 +14°C° 0 mm 1 mps 758 mmHg 90%
    06:00 +14°C° 0 mm 1 mps 759 mmHg 89%
    07:00 +14°C° 0 mm 1 mps 759 mmHg 89%
    08:00 +16°C° 0 mm 1 mps 759 mmHg 82%
    09:00 +19°C° 0 mm 1 mps 759 mmHg 75%
    10:00 +21°C° 0 mm 1 mps 759 mmHg 68%
    11:00 +22°C° 0 mm 1 mps 759 mmHg 63%
    12:00 +23°C° 0 mm 1 mps 759 mmHg 59%
    13:00 +25°C° 0 mm 1 mps 759 mmHg 54%
    14:00 +25°C° 0 mm 1 mps 759 mmHg 55%
    15:00 +24°C° 0 mm 1 mps 759 mmHg 55%
    16:00 +24°C° 0 mm 1 mps 759 mmHg 56%
    17:00 +22°C° 0 mm 1 mps 759 mmHg 63%
    18:00 +20°C° 0 mm 1 mps 759 mmHg 69%
    19:00 +19°C° 0 mm 1 mps 759 mmHg 76%
    20:00 +18°C° 0 mm 1 mps 759 mmHg 78%
    21:00 +18°C° 0 mm 1 mps 759 mmHg 81%
    22:00 +15°C° 0 mm 0 mps 760 mmHg 83%
    23:00 +15°C° 0 mm 0 mps 759 mmHg 84%

    29 September, Friday

    Time Temperature Precipitation Wind Pressure Humidity
    00:00 +14°C° 0 mm 0 mps 759 mmHg 85%
    01:00 +14°C° 0 mm 0 mps 759 mmHg 87%
    02:00 +15°C° 0 mm 1 mps 759 mmHg 87%
    03:00 +15°C° 0 mm 1 mps 759 mmHg 88%
    04:00 +14°C° 0 mm 1 mps 759 mmHg 89%
    05:00 +14°C° 0 mm 1 mps 759 mmHg 89%
    06:00 +14°C° 0 mm 1 mps 759 mmHg 89%
    07:00 +14°C° 0 mm 1 mps 759 mmHg 90%
    08:00 +16°C° 0 mm 1 mps 759 mmHg 82%
    09:00 +20°C° 0 mm 1 mps 758 mmHg 74%
    10:00 +22°C° 0 mm 1 mps 758 mmHg 66%
    11:00 +23°C° 0 mm 1 mps 758 mmHg 61%
    12:00 +24°C° 0 mm 1 mps 758 mmHg 57%
    13:00 +25°C° 0 mm 1 mps 757 mmHg 52%
    14:00 +25°C° 0 mm 1 mps 757 mmHg 52%
    15:00 +25°C° 0 mm 1 mps 756 mmHg 53%
    16:00 +26°C° 0 mm 1 mps 756 mmHg 53%
    17:00 +24°C° 0 mm 1 mps 756 mmHg 60%
    18:00 +22°C° 0 mm 1 mps 756 mmHg 66%
    19:00 +20°C° 0 mm 1 mps 756 mmHg 73%
    20:00 +19°C° 0 mm 1 mps 756 mmHg 75%
    21:00 +19°C° 0 mm 1 mps 756 mmHg 78%
    22:00 +18°C° 0 mm 1 mps 756 mmHg 81%
    23:00 +18°C° 0 mm 1 mps 755 mmHg 81%
    Show more